Starlink 35429

operational
NORAD ID: 66590 Int'l Des: 2025-270 Owner: SPXS Country: US Constellation: starlink
LEOCIRCULAR

About Starlink 35429

Description loading...

Live Position

Loading 3D Globe...

Upcoming Passes

Altitude History

Altitude vs Time

uPlot chart will show altitude changes over time

Two-Line Element Set

1 66590U 25270C 26062.16658529 .00036853 00000-0 13414-2 0 9990
2 66590 42.9977 93.4125 0001639 253.6566 106.4105 15.27595507 16811
Epoch: Mar 3, 2026 • Age: 17 hours

Current Status

Altitude 483.8 km
Velocity 7.63 km/s
Sub-Earth Point 26.51°N, 70.15°E
Launch Date Nov 22, 2025
Age 0.2 years
Type internet

Technical Details

Classification Payload
Mass 575.00 kg
Dry Mass 530.00 kg
Total Mass 575.00 kg
Length 0.30 m
Diameter 4.10 m
Span 29.00 m
Shape Box + pan
Manufacturer SPXS
Bus Type Starlink V2MO
Phase Status In Orbit
Owner/State SPXS/US

Large Constellations

Loading constellations...